This demonstration page uses our WeatherBlox Daily Observations layout. Learn more.

Hourly Observations for July 10, 2018

Temp ( °F °C ) Dew Point ( °F °C ) Humidity (%) Winds ( mph kmh ) Pressure ( in mb ) Visibility ( mi km ) Precip ( " mm )
12:15 am 00:15 Clear 70 21.1 64 17.5 80 80 S 3 6 30.12 1020 10 16.0934 0 0
12:35 am 00:35 Clear 70 21 63 17.3 80 80 S 5 7 30.12 1020 10 16.0934 0 0
12:55 am 00:55 Clear 68 20.1 62 16.9 82 82 SSE 5 7 30.12 1020 10 16.0934 0 0
1:15 am 01:15 Clear 69 20.5 62 16.5 78 78 Calm 30.12 1020 10 16.0934 0 0
1:35 am 01:35 Clear 67 19.2 62 16.5 84 84 SSE 5 7 30.12 1020 10 16.0934 0 0
1:55 am 01:55 Clear 67 19.5 61 16.3 82 82 S 3 6 30.12 1020 10 16.0934 0 0
2:15 am 02:15 Clear 67 19.3 61 16.1 82 82 Calm 30.12 1020 10 16.0934 0 0
2:35 am 02:35 Clear 68 20 61 16 78 78 S 5 7 30.09 1019 10 16.0934 0 0
2:55 am 02:55 Clear 67 19.5 60 15.7 79 79 Calm 30.09 1019 10 16.0934 0 0
3:15 am 03:15 Clear 67 19.6 60 15.3 76 76 SSW 5 7 30.09 1019 10 16.0934 0 0
3:35 am 03:35 Clear 67 19.6 60 15.5 77 77 SSW 6 9 30.09 1019 10 16.0934 0 0
3:55 am 03:55 Clear 67 19.7 60 15.5 77 77 SSW 5 7 30.09 1019 10 16.0934 0 0
4:15 am 04:15 Clear 67 19.2 60 15.6 80 80 S 3 6 30.09 1019 10 16.0934 0 0
4:35 am 04:35 Clear 67 19.7 60 15.3 76 76 SSW 6 9 30.09 1019 10 16.0934 0 0
4:55 am 04:55 Clear 67 19.5 60 15.3 77 77 SSW 5 7 30.09 1019 10 16.0934 0 0
5:15 am 05:15 Clear 66 18.8 59 15.2 80 80 S 3 6 30.09 1019 10 16.0934 0 0
5:35 am 05:35 Clear 66 18.7 60 15.4 81 81 SSW 5 7 30.09 1019 10 16.0934 0 0
5:55 am 05:55 Clear 64 18 59 15.2 84 84 S 5 7 30.09 1019 10 16.0934 0 0
6:15 am 06:15 Clear 65 18.5 60 15.3 82 82 SSW 3 6 30.09 1019 7 11.26538 0 0
6:35 am 06:35 Sunny 66 19 60 15.5 80 80 SSW 3 6 30.09 1019 10 16.0934 0 0
6:55 am 06:55 Sunny 67 19.3 61 15.9 81 81 SSW 5 7 30.09 1019 10 16.0934 0 0
7:15 am 07:15 Sunny 68 20.1 61 16.1 78 78 S 5 7 30.09 1019 10 16.0934 0 0
7:35 am 07:35 Sunny 70 21 62 16.6 76 76 SSW 3 6 30.06 1018 10 16.0934 0 0
7:55 am 07:55 Sunny 71 21.7 62 16.9 74 74 Calm 30.06 1018 10 16.0934 0 0
8:15 am 08:15 Sunny 72 22.3 63 17.4 74 74 Calm 30.09 1019 10 16.0934 0 0
8:35 am 08:35 Sunny 74 23.6 64 17.9 70 70 SSW 6 9 30.06 1018 10 16.0934 0 0
8:55 am 08:55 Sunny 76 24.5 65 18.1 68 68 SW 6 9 30.09 1019 10 16.0934 0 0
9:15 am 09:15 Sunny 78 25.6 65 18.5 65 65 S 6 9 30.06 1018 10 16.0934 0 0
9:35 am 09:35 Sunny 80 26.4 65 18.5 62 62 SSW 6 9 30.06 1018 10 16.0934 0 0
9:55 am 09:55 Sunny 81 27.1 65 18.3 59 59 SSW 9 15 30.06 1018 10 16.0934 0 0
10:15 am 10:15 Sunny 81 27.3 65 18.4 58 58 SSW 9 15 30.06 1018 10 16.0934 0 0
10:35 am 10:35 Sunny 82 28 65 18.6 57 57 SSW 7 11 30.06 1018 10 16.0934 0 0
10:55 am 10:55 Sunny 83 28.3 66 19.1 57 57 SSW 8 13 30.06 1018 10 16.0934 0 0
11:15 am 11:15 Sunny 84 29 66 19.1 55 55 SSW 8 13 30 1016 10 16.0934 0 0
11:35 am 11:35 Sunny 85 29.5 66 18.7 52 52 S 9 15 30 1016 10 16.0934 0 0
11:55 am 11:55 Sunny 85 29.6 66 18.7 52 52 S 8 13 30 1016 10 16.0934 0 0
12:15 pm 12:15 Sunny 86 29.8 65 18.4 50 50 SSE 8 13 30 1016 10 16.0934 0 0
12:35 pm 12:35 Sunny 86 30.1 64 18 48 48 S 9 15 30 1016 10 16.0934 0 0
12:55 pm 12:55 Sunny 87 30.3 63 17.4 46 46 SSE 10 17 30 1016 10 16.0934 0 0
1:15 pm 13:15 Sunny 87 30.5 64 17.6 46 46 SSE 10 17 29.97 1015 10 16.0934 0 0
1:35 pm 13:35 Sunny 87 30.6 62 16.4 42 42 SSE 8 13 29.97 1015 10 16.0934 0 0
1:55 pm 13:55 Sunny 88 31.2 61 16 40 40 S 10 17 29.97 1015 10 16.0934 0 0
2:15 pm 14:15 Sunny 89 31.6 60 15.5 38 38 S 10 17 29.97 1015 10 16.0934 0 0
2:35 pm 14:35 Sunny 89 31.4 61 16 39 39 S 10 17 29.97 1015 10 16.0934 0 0
2:55 pm 14:55 Sunny 89 31.5 60 15.5 38 38 S 10 17 29.97 1015 10 16.0934 0 0
3:15 pm 15:15 Sunny 89 31.7 60 15.3 37 37 S 10 17 29.97 1015 10 16.0934 0 0
3:35 pm 15:35 Sunny 89 31.6 62 16.5 40 40 S 9 15 29.97 1015 10 16.0934 0 0
3:55 pm 15:55 Sunny 89 31.8 62 16.7 40 40 S 8 13 29.97 1015 10 16.0934 0 0
4:15 pm 16:15 Sunny 90 32.1 63 17.3 41 41 S 8 13 29.94 1014 10 16.0934 0 0
4:35 pm 16:35 Sunny 89 31.9 65 18.6 45 45 S 7 11 29.94 1014 10 16.0934 0 0
4:55 pm 16:55 Sunny 90 32.2 63 17.4 41 41 S 9 15 29.91 1013 10 16.0934 0 0
5:15 pm 17:15 Sunny 90 32.1 63 17.3 41 41 SSW 10 17 29.91 1013 10 16.0934 0 0
5:35 pm 17:35 Sunny 90 32.2 65 18.2 43 43 S 10 17 29.91 1013 10 16.0934 0 0
5:55 pm 17:55 Sunny 90 32 65 18.4 44 44 S 7 11 29.91 1013 10 16.0934 0 0
6:15 pm 18:15 Sunny 89 31.6 67 19.2 48 48 S 9 15 29.88 1012 10 16.0934 0 0
6:35 pm 18:35 Sunny 89 31.5 66 19 47 47 S 8 13 29.88 1012 10 16.0934 0 0
6:55 pm 18:55 Sunny 88 31.1 67 19.2 49 49 S 7 11 29.91 1013 10 16.0934 0 0
7:15 pm 19:15 Sunny 88 31 67 19.5 50 50 S 6 9 29.91 1013 10 16.0934 0 0
7:35 pm 19:35 Sunny 87 30.5 69 20.4 55 55 Calm 29.91 1013 10 16.0934 0 0
7:55 pm 19:55 Sunny 87 30.5 68 20.2 54 54 SSW 5 7 29.91 1013 10 16.0934 0 0
8:15 pm 20:15 Sunny 86 29.8 71 21.5 61 61 Calm 29.91 1013 10 16.0934 0 0
8:35 pm 20:35 Sunny 83 28.3 72 22.4 70 70 SSE 3 6 29.91 1013 10 16.0934 0 0
8:55 pm 20:55 Sunny 82 27.6 71 21.5 69 69 SSE 5 7 29.91 1013 10 16.0934 0 0
9:15 pm 21:15 Clear 79 26 70 21.3 75 75 SE 5 7 29.94 1014 10 16.0934 0 0
9:35 pm 21:35 Clear 77 24.8 71 21.6 82 82 SE 6 9 29.94 1014 10 16.0934 0 0
9:55 pm 21:55 Clear 76 24.3 70 21 82 82 SSE 6 9 29.94 1014 10 16.0934 0 0
10:15 pm 22:15 Clear 75 23.9 69 20.6 82 82 SE 6 9 29.94 1014 10 16.0934 0 0
10:35 pm 22:35 Clear 74 23.6 70 20.9 85 85 SSE 6 9 29.97 1015 10 16.0934 0 0
10:55 pm 22:55 Clear 74 23.5 68 20.2 82 82 SSE 6 9 29.97 1015 10 16.0934 0 0
11:15 pm 23:15 Clear 74 23.2 68 19.8 81 81 SSE 6 9 29.97 1015 10 16.0934 0 0
11:35 pm 23:35 Clear 73 22.6 67 19.5 83 83 SSE 6 9 29.97 1015 10 16.0934 0 0
11:55 pm 23:55 Clear 73 22.5 66 19.1 81 81 SSE 3 6 29.97 1015 10 16.0934 0 0

Powered by AerisWeather